Погода в Мурсалимкином

Россия / Республика Башкортостан     55°02′15″N   58°33′30″E
темп.,
°C
ветер,
м/с
пор.,
м/с
влажн.,
%
обл.,
%
осадки,
мм/ч
давл.,
гПа
погр.,
м
11 апреля, вс
вс1123:00+4юв2294100 0.0 103338
02:00+3ююв2398100 0.0 103246
05:00+2ююв2299100 0.0 103340
08:00+4ююв2288100 0.0 103358
11:00+12ююз23605 0.0 1032207
14:00+16ю365258 0.0 1031494
17:00+16зюз256186 0.0 1031431
20:00+8ююз1192100 0.0 103310
12 апреля, пн
пн1223:00+6ююз1195100 0.0 103510
02:00+5ююв1196100 0.0 103510
05:00+4ю0097100 0.0 103610
08:00+6ю1191100 0.0 103637
11:00+11с117899 0.0 1036390
14:00+10ссв2276100 0.1 1036419
17:00+8ссв2389100 0.8 1037240
20:00+7св2499100 0.6 1038154
13 апреля, вт
вт1323:00+6св2399100 0.6 103895
02:00+7всв1197100 0.0 103817
05:00+7юв1196100 0.0 103813
08:00+8юв1194100 0.0 103962
11:00+9юв1281100 0.0 1039271
14:00+12ююз1269100 0.0 1038529
17:00+11ююз1273100 0.0 1037239
20:00+9ю117880 0.0 103610
14 апреля, ср
ср1423:00+8ююв1180100 0.0 103611
02:00+8ю2284100 0.0 103520
05:00+7ююз1187100 0.0 103516
08:00+8ююз118689 0.0 103422
11:00+13зсз006513 0.0 1032554
14:00+17сз115353 0.0 10301063
17:00+16ссз115190 0.0 10281233
20:00+12ссв11736 0.0 102810
15 апреля, чт
чт1523:00+10юв11816 0.0 102710
02:00+8ю11875 0.0 102710
05:00+7ю11895 0.0 102610
08:00+9ю11805 0.0 102659
11:00+15зюз11605 0.0 1024536
14:00+18з12485 0.0 10221394
17:00+18зсз23445 0.0 10201798
20:00+12зсз227253 0.0 101918